EW1631 Weather Reports


time (UTC)temp
F
wind
direction
speed
knots
gust
knots
rain 1hr
in
rain 24hr
in
rain mn
in
humidity
%
barometer
mb
20260831121551 89 268 7.0 13.0 0.00 0.00 0.00 16 1005.9
20260831120048 90 296 7.8 12.2 0.00 0.00 0.00 17 1005.9
20260831114548 90 286 7.8 13.0 0.00 0.00 0.00 17 1005.9
20260831113047 90 288 7.0 13.0 0.00 0.00 0.00 16 1006.0
20260831111545 90 298 7.0 12.2 0.00 0.00 0.00 15 1006.0
20260831110046 90 279 6.1 10.4 0.00 0.00 0.00 14 1005.9
20260831104544 91 276 7.0 11.3 0.00 0.00 0.00 13 1005.9
20260831103041 91 317 7.0 12.2 0.00 0.00 0.00 12 1005.8
20260831101550 91 269 7.8 13.9 0.00 0.00 0.00 11 1005.7
20260831100038 91 262 7.8 17.4 0.00 0.00 0.00 11 1005.4
20260831094537 92 284 9.6 15.6 0.00 0.00 0.00 12 1005.2
20260831093038 92 236 9.6 17.4 0.00 0.00 0.00 13 1005.2
20260831091550 91 279 8.7 14.8 0.00 0.00 0.00 13 1005.3
20260831090030 92 311 6.1 12.2 0.00 0.00 0.00 13 1005.6
20260831084533 91 313 7.0 13.0 0.00 0.00 0.00 14 1005.8
20260831083030 92 286 7.0 13.9 0.00 0.00 0.00 14 1005.7
20260831081535 92 286 9.6 14.8 0.00 0.00 0.00 14 1005.8
20260831080053 92 276 8.7 15.6 0.00 0.00 0.00 17 1006.1
20260831074523 92 286 10.4 16.5 0.00 0.00 0.00 18 1006.1
20260831073051 92 288 7.8 16.5 0.00 0.00 0.00 18 1006.0
20260831071517 93 293 10.4 15.6 0.00 0.00 0.00 18 1005.9
20260831070016 93 284 9.6 14.8 0.00 0.00 0.00 17 1005.9
20260831064515 93 292 10.4 14.8 0.00 0.00 0.00 17 1005.9
20260831063023 93 300 9.6 14.8 0.00 0.00 0.00 17 1005.8
20260831061514 93 246 10.4 17.4 0.00 0.00 0.00 17 1005.7
20260831060019 93 290 8.7 18.2 0.00 0.00 0.00 18 1005.7
20260831054518 93 301 9.6 17.4 0.00 0.00 0.00 18 1005.6
20260831053016 93 297 9.6 18.2 0.00 0.00 0.00 19 1005.6
20260831051515 94 307 10.4 18.2 0.00 0.00 0.00 19 1005.2
20260831050015 95 280 11.3 17.4 0.00 0.00 0.00 18 1004.9
20260831044513 95 290 9.6 16.5 0.00 0.00 0.00 18 1005.1
20260831043012 95 279 11.3 17.4 0.00 0.00 0.00 18 1005.1
20260831041512 94 284 9.6 20.9 0.00 0.00 0.00 20 1005.2
20260831040011 95 272 8.7 20.0 0.00 0.00 0.00 20 1005.1
20260831034511 95 265 12.2 19.1 0.00 0.00 0.00 19 1004.8
20260831033015 95 300 12.2 17.4 0.00 0.00 0.00 21 1004.7
20260831031511 96 305 13.0 20.9 0.00 0.00 0.00 21 1004.4
20260831030011 97 330 17.4 26.9 0.00 0.00 0.00 20 1004.5
20260831024509 97 298 13.0 20.0 0.00 0.00 0.00 20 1004.3
20260831023009 98 300 12.2 18.2 0.00 0.00 0.00 18 1004.1
20260831021513 99 294 8.7 14.8 0.00 0.00 0.00 17 1003.9
20260831020008 101 310 8.7 14.8 0.00 0.00 0.00 17 1003.9
20260831014511 102 292 8.7 14.8 0.00 0.00 0.00 16 1003.8
20260831013008 103 252 8.7 16.5 0.00 0.00 0.00 16 1003.6
20260831011517 104 294 8.7 15.6 0.00 0.00 0.00 15 1003.5
20260831010006 105 283 9.6 15.6 0.00 0.00 0.00 14 1003.5
20260831004506 106 248 8.7 15.6 0.00 0.00 0.00 14 1003.5
20260831003011 106 283 10.4 17.4 0.00 0.00 0.00 14 1003.3
20260831001505 106 309 12.2 17.4 0.00 0.00 0.00 14 1003.4
20260831000004 108 255 7.8 17.4 0.00 0.00 0.00 14 1003.4
20260830234518 108 267 9.6 17.4 0.00 0.00 0.00 14 1003.4
20260830233008 108 285 11.3 18.2 0.00 0.00 0.00 14 1003.6
20260830231509 108 297 9.6 16.5 0.00 0.00 0.00 15 1003.6
20260830230004 109 296 10.4 17.4 0.00 0.00 0.00 15 1003.8
20260830224502 110 271 9.6 15.6 0.00 0.00 0.00 15 1003.9
20260830223200 110 304 7.8 16.5 0.00 0.00 0.00 15 1004.0
20260830221559 111 273 6.1 11.3 0.00 0.00 0.00 15 1004.1
20260830220056 112 290 4.3 8.7 0.00 0.00 0.00 14 1004.3
20260830214555 112 190 0.0 4.3 0.00 0.00 0.00 15 1004.7
20260830213052 111 92 1.7 7.0 0.00 0.00 0.00 15 1004.8
20260830211550 109 292 4.3 7.8 0.00 0.00 0.00 16 1005.1
20260830210046 109 59 2.6 8.7 0.00 0.00 0.00 17 1005.3
20260830204544 108 93 2.6 8.7 0.00 0.00 0.00 17 1005.6
20260830203043 107 113 7.0 11.3 0.00 0.00 0.00 17 1005.9
20260830201543 107 132 5.2 12.2 0.00 0.00 0.00 18 1006.0
20260830200039 107 104 1.7 9.6 0.00 0.00 0.00 17 1006.3
20260830194537 106 93 2.6 10.4 0.00 0.00 0.00 18 1006.6
20260830193032 105 27 0.9 9.6 0.00 0.00 0.00 19 1006.6
20260830191531 106 115 1.7 9.6 0.00 0.00 0.00 18 1006.9
20260830190028 105 68 0.9 8.7 0.00 0.00 0.00 19 1007.2
20260830184523 104 123 3.5 8.7 0.00 0.00 0.00 19 1007.3
20260830183019 105 138 7.0 10.4 0.00 0.00 0.00 19 1007.5
20260830181516 104 161 2.6 9.6 0.00 0.00 0.00 18 1007.7
20260830180012 103 176 4.3 7.8 0.00 0.00 0.00 18 1007.8
20260830174514 103 150 5.2 10.4 0.00 0.00 0.00 19 1007.8
20260830173007 102 153 6.1 10.4 0.00 0.00 0.00 19 1007.7
20260830171503 102 168 5.2 10.4 0.00 0.00 0.00 19 1007.6
20260830170059 101 153 6.1 8.7 0.00 0.00 0.00 19 1007.5
20260830164558 100 122 3.5 8.7 0.00 0.00 0.00 20 1007.4
20260830163058 100 150 7.8 9.6 0.00 0.00 0.00 20 1007.6
20260830161604 99 154 7.0 9.6 0.00 0.00 0.00 20 1007.5
20260830160044 100 163 5.2 11.3 0.00 0.00 0.00 20 1007.3
20260830154540 99 306 3.5 8.7 0.00 0.00 0.00 19 1007.1
20260830153038 97 302 3.5 9.6 0.00 0.00 0.00 21 1007.1
20260830151541 96 317 4.3 8.7 0.00 0.00 0.00 21 1007.2
20260830150028 95 301 6.1 9.6 0.00 0.00 0.00 23 1007.2
20260830144533 94 306 4.3 8.7 0.00 0.00 0.00 24 1007.1
20260830143023 92 289 5.2 8.7 0.00 0.00 0.00 26 1007.1
20260830141518 91 303 3.5 7.0 0.00 0.00 0.00 28 1007.1
20260830140014 90 296 5.2 8.7 0.00 0.00 0.00 29 1007.0
20260830134516 89 331 1.7 7.8 0.00 0.00 0.00 30 1006.9
20260830133007 89 305 1.7 6.1 0.00 0.00 0.00 30 1006.8
20260830131505 89 347 2.6 7.8 0.00 0.00 0.00 29 1006.6
20260830130002 90 316 3.5 7.0 0.00 0.00 0.00 29 1006.5
20260830124501 90 283 4.3 11.3 0.00 0.00 0.00 28 1006.5
20260830123101 90 267 6.1 10.4 0.00 0.00 0.00 28 1006.4